AirNav   ATP
 
 635 users online  

35C Wells Airport
Rockford, Michigan, USA

GOING TO ROCKFORD?


FAA INFORMATION EFFECTIVE 16 AUGUST 2018

Location

FAA Identifier: 35C
Lat/Long: 43-07-42.1010N / 085-30-19.1060W
43-07.701683N / 085-30.318433W
43.1283614 / -85.5053072
(estimated)
Elevation: 890 ft. / 271 m (estimated)
Variation: 04W (1985)
From city: 3 miles NE of ROCKFORD, MI
Time zone: UTC -4 (UTC -5 during Standard Time)
Zip code: 49341

Airport Operations

Airport use: Open to the public
Activation date: 06/1965
Control tower: no
ARTCC: CHICAGO CENTER
FSS: LANSING FLIGHT SERVICE STATION
NOTAMs facility: LAN (NOTAM-D service available)
Attendance: MAY-NOV DAYLIGHT HOURS
OWNER LIVES ON ARPT.
Wind indicator: yes
Segmented circle: yes

Airport Communications

CTAF: 122.9
WX AWOS-A at 8D4 (8 nm W): 132.95 (616-887-2039)
WX ASOS at GRR (15 nm S): 118.725 (616-575-1953)

Nearby radio navigation aids

VOR radial/distance  VOR name  Freq  Var
VIOr003/20.5VICTORY VOR/DME115.9504W
MKGr097/23.5MUSKEGON VORTAC115.2001W
HICr162/28.3WHITE CLOUD VOR/DME117.6001W

Airport Services

Parking: tiedowns
Airframe service: NONE
Powerplant service: NONE
Bottled oxygen: NONE
Bulk oxygen: NONE

Runway Information

Runway 18/36

Dimensions: 2200 x 100 ft. / 671 x 30 m
Surface: turf, in good condition
RWY SOFT WHEN WET.
Runway edge markings: RY 18 /36 & DSPLD THLD MKD WITH 3 FT YELLOW CONES.
RUNWAY 18  RUNWAY 36
Latitude: 43-07.886000N43-07.517167N
Longitude: 085-30.318333W085-30.318333W
Elevation: 890.0 ft.890.0 ft.
Traffic pattern: leftleft
Displaced threshold: no400 ft.
Runway end identifier lights: nono
Obstructions: 40 ft. tree, 102 ft. left of centerline
APCH RATIO 25:1 STRAIGHT OUT.
50 ft. tree, 90 ft. left and right of centerline
APCH RATIO 0:1 AT DSPLCD THLD BASED ON 60 FT TREES, 90R/L, 0 FT FM DSPLD THLD, 20:1 STRAIGHT OUT OVR 39 FT TREES, 780 FT DSTC.

Airport Ownership and Management from official FAA records

Ownership: Privately-owned
Owner: TERRY FINGER
6530 11 MILE ROAD
ROCKFORD, MI 49341
Phone 616-884-0150
Manager: TERRY FINGER
6530 11 MILE RD
ROCKFORD, MI 49341
Phone 616-901-5269

Airport Operational Statistics

Aircraft based on the field: 5
Single engine airplanes: 4
Gliders airplanes: 1
    
Aircraft operations: avg 33/month *
50% transient general aviation
50% local general aviation
* for 12-month period ending 31 December 2014

Additional Remarks

ARPT CLSD DEC TO APR.
DEER ON AND INVOF ARPT.

Instrument Procedures

There are no published instrument procedures at 35C.

Some nearby airports with instrument procedures:

8D4 - Paul C Miller-Sparta Airport (8 nm W)
6D6 - Greenville Municipal Airport (11 nm E)
KGRR - Gerald R Ford International Airport (15 nm S)
13C - Lakeview Airport-Griffith Field (22 nm NE)
Y70 - Ionia County Airport (23 nm SE)
 
Loc | Ops | Rwys | IFR | FBO | Links
Com | Nav | Svcs | Stats | Notes


 
Area around 35C (Wells Airport)
 
Road maps at: MapQuest Bing Google
 
Aerial photo
No photo
 
Sectional chart

 
Airport distance calculator
Flying to Wells Airport? Find the distance to fly.

From to 35C

Sunrise and sunset
Times for 21-Aug-2018
 Local
(UTC-4)
 Zulu
(UTC)
Morning civil twilight06:2510:25
Sunrise06:5510:55
Sunset20:3500:35
Evening civil twilight21:0501:05

Current date and time
Zulu (UTC)  21-Aug-2018 04:18:18
Local (UTC-4)  21-Aug-2018 00:18:18
 
METAR
KGRR 
15nm S 
210353Z 09008KT 10SM FEW035 OVC055 22/18 A2987 RMK AO2 SLP111 LAST T02220178
KY70 
23nm SE 
210355Z AUTO 06005KT 10SM OVC070 20/16 A2988 RMK AO2 T02040161
KFFX 
28nm NW 
210358Z AUTO 09007G15KT 10SM BKN070 BKN090 22/17 A2987 RMK AO2 T02220167
TAF
KGRR 
15nm S 
201740Z 2018/2118 11012KT P6SM OVC200 FM210100 11010KT P6SM SHRA VCTS OVC050CB FM210400 09008KT 6SM -SHRA OVC025 FM210600 09005KT 3SM -SHRA BR OVC008 FM210800 08005KT 3SM BR VCSH OVC015 FM211400 04007KT 4SM -SHRA BR OVC025
NOTAMs
Click for the latest NOTAMs
NOTAMs are issued by the DoD/FAA and will open in a separate window not controlled by AirNav.

 

 
 

Would you like to see your business listed on this page?

 If your business provides an interesting product or service to pilots, flight crews, aircraft, or users of the Wells Airport, you should consider listing it here.  To start the listing process, click on the button below
 
Add a business
 

Other Pages about Wells Airport

Page from the Michigan Airport Directory (PDF)
 
Update a link
 
Copyright © AirNav, LLC. All rights reserved. Privacy Policy  Contact